Regional Weather Roundup
Issued by NWS

Home | Current Version | Previous Version | Text Only | Print | Product List | Glossary On
Versions: 1 2 3 4 5 6 7 8 9 10 11 12 13 14 15 16 17 18 19 20 21 22 23 24 25 26 27 28 29 30 31 32 33 34 35 36 37 38 39 40 41 42 43 44 45 46 47 48 49 50
000
ASUS43 KMKX 030521
RWRWI

WISCONSIN REGIONAL WEATHER ROUNDUP
NATIONAL WEATHER SERVICE MILWAUKEE/SULLIVAN WI
1200 AM CDT WED SEP 03 2014

NOTE: "FAIR" INDICATES FEW OR NO CLOUDS BELOW 12,000 FEET WITH NO
SIGNIFICANT WEATHER AND/OR OBSTRUCTIONS TO VISIBILITY.

WIZ001-002-006>008-014>016-023>028-030600-
NORTHWEST WISCONSIN

CITY           SKY/WX    TMP DP  RH WIND       PRES   REMARKS
SUPERIOR ARPT  MOCLDY    53  53  98 CALM      29.81S
ASHLAND        CLEAR     51  50  96 CALM      29.85S
HAYWARD        CLEAR     54  52  93 CALM      29.87S
SIREN          CLEAR     64  53  66 SW7       29.86R
RICE LAKE      CLEAR     56  53  91 SE3       29.90R
LADYSMITH      CLEAR     56  54  92 CALM      29.91S
EAU CLAIRE     CLEAR     59  57  93 SW5       29.89S
MENOMONIE      CLEAR     59  56  90 CALM      29.89S
NEW RICHMOND   CLEAR     59  55  84 S5        29.89R
OSCEOLA        CLEAR     57  56  97 CALM      29.90S
$$

WIZ003>005-009-010-017-018-030600-
NORTH CENTRAL WISCONSIN

CITY           SKY/WX    TMP DP  RH WIND       PRES   REMARKS
WOODRUFF       CLEAR     57  54  89 CALM      29.91S
RHINELANDER    CLEAR     54  51  90 CALM      29.93R
EAGLE RIVER    CLEAR     48  47  99 CALM      29.91S
LAND O LAKES   CLEAR     48  48  97 CALM      29.91S
PHILLIPS       CLEAR     52  52  98 CALM      29.90R
TOMAHAWK       CLEAR     48  47  97 CALM      29.92R
MEDFORD        CLEAR     53  52  95 CALM      29.92R
MERRILL        CLEAR     50  50 100 CALM      29.92R FOG
$$

WIZ029-030-035-036-043>047-030600-
CENTRAL WISCONSIN

CITY           SKY/WX    TMP DP  RH WIND       PRES   REMARKS
WAUSAU         PTCLDY    56  55  97 SE3       29.91R
MOSINEE        PTCLDY    55  55 100 CALM      29.93S
MARSHFIELD     CLEAR     58  55  90 SW3       29.92R
STEVENS POINT  PTCLDY    54  53  97 CALM      29.93S
WAUPACA        PTCLDY    60  58  94 CALM      29.93S
WAUTOMA        MOCLDY    57  55  93 CALM      29.94R
WISC RAPIDS    CLEAR     56  56 100 S3        29.94R
CAMP DOUGLAS   CLEAR     56  56 100 SE3       29.94R
$$

WIZ011>013-019>022-031-037>040-048>050-030600-
NORTHEAST WISCONSIN

CITY           SKY/WX    TMP DP  RH WIND       PRES   REMARKS
ANTIGO         CLEAR     52  51  96 CALM      29.93R
STURGEON BAY   CLEAR     63  57  82 W6        29.91R
GREEN BAY      CLEAR     58  57  97 CALM      29.91S
MANITOWOC      CLEAR     62  59  90 SW5       29.93R
APPLETON       CLEAR     63  55  77 SW8       29.93S
CLINTONVILLE   PTCLDY    57  55  94 CALM      29.91S
OSHKOSH        CLEAR     62  57  83 SW5       29.93R
$$

WIZ032>034-041-042-053>061-030600-
SOUTHWEST WISCONSIN

CITY           SKY/WX    TMP DP  RH WIND       PRES   REMARKS
LA CROSSE      CLEAR     65  61  87 S8        29.92R
SPARTA         CLEAR     56  55  97 CALM      29.94S
VIROQUA        FAIR      61  61 100 SW5       29.96R
BOSCOBEL       CLEAR     60  57  89 CALM      29.96R
PRAIRIE DU CHI CLEAR     60  58  92 CALM      29.95S
PLATTEVILLE    FAIR      61  58  89 CALM      29.99R
$$

WIZ056-057-062-063-064-067-068-030600-
SOUTH CENTRAL WISCONSIN

CITY           SKY/WX    TMP DP  RH WIND       PRES   REMARKS
BARABOO/DELLS  CLEAR     61  55  82 CALM      29.95S
LONE ROCK      CLEAR     62  57  83 CALM      29.96R
WATERTOWN      CLEAR     57  57  99 CALM      29.95S
MADISON        CLEAR     60  57  89 CALM      29.96R
MIDDLETON      FAIR      59  58  96 CALM      29.97R
MONROE         CLEAR     63  59  88 SW6       29.98R
JANESVILLE     CLEAR     61  59  94 CALM      29.97R
$$

WIZ051-052-058>065-066-070>072-030600-
SOUTHEAST WISCONSIN

CITY           SKY/WX    TMP DP  RH WIND       PRES   REMARKS
MILWAUKEE      CLEAR     66  58  75 CALM      29.95R
WAUKESHA       CLEAR     61  55  82 CALM      29.97S
MILWAUKEE/TIMM CLEAR     61  55  82 CALM      29.96S
RACINE         CLEAR     64  59  83 W5        29.98R
BURLINGTON     CLEAR     56  56 100 CALM      29.97R
KENOSHA        CLEAR     62  59  90 SW3       29.97R
FOND DU LAC    CLEAR     60  56  86 S3        29.94R
SHEBOYGAN      CLEAR     58  56  93 CALM      29.94R
WEST BEND      CLEAR     57  55  94 CALM      29.96R
JUNEAU         CLEAR     61  57  88 CALM      29.96S
$$

LSZ147-162-030600-
LAKE SUPERIOR

STATION/POSITION TIME  TEMP    WIND        PRES    WAVE
                       AIR SEA DIR/SP/G            HT/PER
                 (UTC) (F)     (DEG/KT/KT) (MB)    (FT/S)
W MID LAKE BUOY  0450   59 58  170/  8/ 12 1009.3R   2/ 5
DEVILS ISLAND    0500   60     180/ 11/ 16 1009.3F
PORT WING        0400   60     150/  3/  8 1009.8
SAXON HARBOR     0440   58     200/  5/  7 1010.5F
$$

LMZ867-665-643>646-030600-
LAKE MICHIGAN

STATION/POSITION TIME  TEMP    WIND        PRES    WAVE
                       AIR SEA DIR/SP/G            HT/PER
                 (UTC) (F)     (DEG/KT/KT) (MB)    (FT/S)
N MID LAKE BUOY  0450   66 65  230/ 10/ 12 1011.5R   1/ 3
NORTHPORT PIER   0400   64     240/  3/  6 1011.5R
SISTER BAY       0411   68        CALM       N/A
ALGOMA LAKESHORE 0423             CALM       N/A
KEWAUNEE LAKESHO 0400   63     280/  2/  3 1011.6R
SHEBOYGAN LAKESH 0500   66 52  250/  9/ 10 1013.7R
ATWATER BUOY     0500   68     220/  6/  6 1015.2R
MILWAUKEE LAKESH 0500   70     240/  7/  7   N/A
S MID LAKE BUOY  0450   72 71  210/  6/  8 1014.2R   0
KENOSHA   LAKESH 0500   69     260/  6/  6 1014.2R
$$

TC  - TEMPERATURE IN CELSIUS
VSB - VISIBILITY IN STATUTE MILES
WCI - WIND CHILL INDEX
HX  - HEAT INDEX



USA.gov is the U.S. government's official web portal to all federal, state and local government web resources and services.